EW6519 Weather Reports


time (UTC)temp
C
wind
direction
speed
KPH
gust
KPH
rain 1hr
cm
rain 24hr
cm
rain mn
cm
humidity
%
barometer
mb
20260902233026 32 145 0.0 0.0 0.00 0.00 0.00 57 1013.3
20260902231529 33 233 0.0 9.7 0.00 0.00 0.00 56 1013.4
20260902230025 33 250 0.0 9.7 0.00 0.00 0.00 55 1013.4
20260902224524 33 243 0.0 8.0 0.00 0.00 0.00 54 1013.5
20260902223023 33 242 1.6 9.7 0.00 0.00 0.00 53 1013.4
20260902221522 34 226 0.0 0.0 0.00 0.00 0.00 52 1013.5
20260902220021 35 241 0.0 3.2 0.00 0.00 0.00 51 1013.5
20260902214521 35 259 0.0 8.0 0.00 0.00 0.00 50 1013.5
20260902213020 35 199 0.0 3.2 0.00 0.00 0.00 50 1013.6
20260902211519 36 256 3.2 14.5 0.00 0.00 0.00 48 1013.6
20260902210018 35 162 1.6 14.5 0.00 0.00 0.00 50 1013.7
20260902204517 35 266 0.0 1.6 0.00 0.00 0.00 49 1013.8
20260902203015 35 256 0.0 12.9 0.00 0.00 0.00 48 1013.9
20260902201516 35 288 1.6 6.4 0.00 0.00 0.00 49 1013.9
20260902200015 35 227 3.2 11.3 0.00 0.00 0.00 48 1014.0
20260902194513 35 282 0.0 11.3 0.00 0.00 0.00 49 1014.2
20260902193010 36 212 3.2 24.1 0.00 0.00 0.00 46 1014.4
20260902191510 36 257 0.0 8.0 0.00 0.00 0.00 47 1014.7
20260902190010 36 1 0.0 14.5 0.00 0.00 0.00 46 1014.7
20260902184508 35 267 0.0 1.6 0.00 0.00 0.00 47 1014.8
20260902183007 36 224 1.6 11.3 0.00 0.00 0.00 47 1015.0
20260902181505 35 227 6.4 12.9 0.00 0.00 0.00 48 1015.0
20260902180055 35 227 1.6 14.5 0.00 0.00 0.00 49 1015.1
20260902174554 36 235 3.2 12.9 0.00 0.00 0.00 49 1015.2
20260902173051 35 244 0.0 9.7 0.00 0.00 0.00 51 1015.4
20260902171610 35 336 0.0 6.4 0.00 0.00 0.00 50 1015.5
20260902170050 35 219 4.8 17.7 0.00 0.00 0.00 50 1015.6
20260902164546 35 340 0.0 9.7 0.00 0.00 0.00 52 1015.7
20260902163044 35 309 0.0 9.7 0.00 0.00 0.00 52 1016.0
20260902161548 34 226 3.2 8.0 0.00 0.00 0.00 53 1016.0
20260902160044 34 232 3.2 11.3 0.00 0.00 0.00 54 1016.0
20260902154540 34 297 0.0 8.0 0.00 0.00 0.00 55 1016.2
20260902153038 33 224 0.0 11.3 0.00 0.00 0.00 57 1016.2
20260902151537 33 39 0.0 0.0 0.00 0.00 0.00 59 1016.4
20260902150033 32 241 0.0 0.0 0.00 0.00 0.00 60 1016.4
20260902144534 32 340 0.0 8.0 0.00 0.00 0.00 63 1016.3
20260902143026 31 240 0.0 0.0 0.00 0.00 0.00 64 1016.3
20260902141532 31 221 1.6 8.0 0.00 0.00 0.00 64 1016.3
20260902140021 30 244 0.0 1.6 0.00 0.00 0.00 67 1016.3
20260902134523 30 228 0.0 9.7 0.00 0.00 0.00 68 1016.3
20260902133020 29 255 0.0 14.5 0.00 0.00 0.00 69 1016.3
20260902131512 28 231 0.0 8.0 0.00 0.00 0.00 70 1016.4
20260902130007 28 231 0.0 4.8 0.00 0.00 0.00 74 1016.3
20260902124504 27 242 0.0 0.0 0.00 0.00 0.00 78 1016.3
20260902123003 25 189 0.0 0.0 0.00 0.00 0.00 82 1016.1
20260902121502 25 248 0.0 0.0 0.00 0.00 0.00 85 1016.1
20260902120101 24 248 0.0 0.0 0.00 0.00 0.00 86 1015.9
20260902114559 23 249 0.0 0.0 0.00 0.00 0.00 87 1015.8
20260902113104 23 248 0.0 0.0 0.00 0.00 0.00 89 1015.6
20260902111555 23 249 0.0 0.0 0.00 0.00 0.00 89 1015.5
20260902110055 23 248 0.0 0.0 0.00 0.00 0.00 89 1015.6
20260902104553 23 248 0.0 0.0 0.00 0.00 0.00 89 1015.5
20260902103051 23 248 0.0 0.0 0.00 0.00 0.00 89 1015.5
20260902101548 23 248 0.0 0.0 0.00 0.00 0.00 88 1015.4
20260902100047 23 248 0.0 0.0 0.00 0.00 0.00 88 1015.3
20260902094551 23 248 0.0 0.0 0.00 0.00 0.00 88 1015.3
20260902093042 23 248 0.0 0.0 0.00 0.00 0.00 87 1015.3
20260902091543 23 248 0.0 0.0 0.00 0.00 0.00 87 1015.2
20260902090039 24 248 0.0 0.0 0.00 0.00 0.00 86 1015.1
20260902084540 24 248 0.0 0.0 0.00 0.00 0.00 85 1014.9
20260902083035 24 248 0.0 0.0 0.00 0.00 0.00 85 1014.8
20260902081532 24 248 0.0 0.0 0.00 0.00 0.00 84 1014.7
20260902080034 25 248 0.0 0.0 0.00 0.00 0.00 84 1014.5
20260902074530 25 249 0.0 0.0 0.00 0.00 0.00 83 1014.5
20260902073027 25 248 0.0 0.0 0.00 0.00 0.00 82 1014.5
20260902071526 25 248 0.0 0.0 0.00 0.00 0.00 82 1014.5
20260902070024 25 249 0.0 0.0 0.00 0.00 0.00 82 1014.6
20260902064526 25 248 0.0 0.0 0.00 0.00 0.00 81 1014.4
20260902063036 25 249 0.0 0.0 0.00 0.00 0.00 80 1014.6
20260902061520 26 249 0.0 0.0 0.00 0.00 0.00 79 1014.6
20260902060016 26 249 0.0 0.0 0.00 0.00 0.00 78 1014.6
20260902054518 26 249 0.0 0.0 0.00 0.00 0.00 77 1014.6
20260902053015 26 174 0.0 0.0 0.00 0.00 0.00 77 1014.7
20260902051518 26 174 0.0 0.0 0.00 0.00 0.00 77 1014.7
20260902050015 26 174 0.0 0.0 0.00 0.00 0.00 77 1014.7
20260902044515 26 174 0.0 0.0 0.00 0.00 0.00 76 1014.6
20260902043010 27 174 0.0 0.0 0.00 0.00 0.00 76 1014.7
20260902041507 27 174 0.0 0.0 0.00 0.00 0.00 75 1014.7
20260902040009 27 174 0.0 0.0 0.00 0.00 0.00 74 1014.7
20260902034504 27 174 0.0 0.0 0.00 0.00 0.00 74 1014.7
20260902033006 27 138 0.0 0.0 0.00 0.00 0.00 73 1014.7
20260902031504 27 138 0.0 0.0 0.00 0.00 0.00 73 1014.7
20260902030100 28 155 0.0 0.0 0.00 0.00 0.00 73 1014.6
20260902024600 28 167 0.0 0.0 0.00 0.00 0.00 73 1014.7
20260902023102 28 158 0.0 0.0 0.00 0.00 0.00 72 1014.8
20260902021601 28 158 0.0 0.0 0.00 0.00 0.00 72 1014.8
20260902020057 28 158 0.0 0.0 0.00 0.00 0.00 70 1014.7
20260902014558 29 158 0.0 0.0 0.00 0.00 0.00 69 1014.6
20260902013058 29 158 0.0 0.0 0.00 0.00 0.00 68 1014.5
20260902011502 30 175 0.0 0.0 0.00 0.00 0.00 66 1014.4
20260902010101 30 164 0.0 0.0 0.00 0.00 0.00 65 1014.2
20260902004602 30 233 0.0 0.0 0.00 0.00 0.00 63 1014.1
20260902003133 31 169 0.0 0.0 0.00 0.00 0.00 62 1014.2
20260902001600 31 150 0.0 0.0 0.00 0.00 0.00 60 1014.2
20260902000101 31 173 0.0 0.0 0.00 0.00 0.00 59 1014.3
20260901234558 32 214 0.0 0.0 0.00 0.00 0.00 59 1014.3